{"data":{"norad_id":66206,"intl_designator":"2025-244A","name":"STARLINK-35748","alt_names":[],"object_type":"PAYLOAD","status":"ACTIVE","operator":null,"country":"US","launch_date":"2025-10-28","launch_site_code":"AFWTR","launch_vehicle":null,"mission":null,"orbit_class":"UNKNOWN","rcs_meters":null,"size_class":null,"mass_kg":null,"dimensions":null,"purposes":["comms"],"wikipedia_slug":null,"has_3d_model":false,"image_url":null,"decayed_at":null,"tle_current":{"epoch":"2026-09-20T14:27:38.147904Z","epoch_age_seconds":91568,"freshness":"FRESH","line1":"1 66206U 25244A   26263.60252486  .00021588  00000+0  64800-3 0  9993","line2":"2 66206  53.1581  40.8698 0000552  73.2067 286.8996 15.34410424 51559","mean_motion":15.34410424,"eccentricity":5.52e-5,"inclination_deg":53.1581,"raan_deg":40.8698,"arg_perigee_deg":73.2067,"mean_anomaly_deg":286.8996,"bstar":0.000648,"rev_number":5155,"period_min":93.847120527643,"perigee_km":462.2946453867,"apogee_km":463.04987072879,"semimajor_km":6840.8092580577,"source":"CELESTRAK","updated_at":"2026-09-21T09:00:35.839447Z"}}}